Wind_Speed
6 8 5 9 17 20 21 22 22 20 24 33 35 32 25 25 34 39 41 40 39 40 43 43 41 41 44 45 45 44 45 46 46 44 43 42 43 44 45 46 46 47 48 49
2 6 12 14 14 14 14 17 19 17 22 28 29 27 25 25 30 35 37 37 37 39 40 39 39 39 39 40 40 40 40 41 42 42 42 42 43 44 46 47 47 48 50 51
6 11 13 11 13 13 12 13 17 21 25 26 27 27 24 24 28 34 36 37 37 36 37 38 39 39 38 39 39 40 40 41 42 43 43 44 45 46 47 49 50 50 52 53
11 16 16 15 14 16 16 18 24 26 26 26 24 27 22 20 26 33 37 36 34 34 35 36 38 39 41 41 42 43 44 45 46 47 48 49 49 50 50 51 52 53 54 54
9 16 16 15 16 20 22 23 25 24 23 22 18 21 18 17 24 29 32 32 35 36 36 37 37 38 39 40 41 43 44 45 47 48 49 50 51 51 51 52 53 54 55 55
11 15 15 14 16 18 18 17 16 15 15 16 16 18 15 19 25 29 34 38 40 40 38 37 36 36 36 37 37 38 39 40 41 43 45 46 47 49 50 51 52 53 54 54
7 8 10 12 11 13 14 14 11 8 9 15 16 18 18 22 26 30 33 37 39 39 38 36 34 33 34 34 35 35 35 36 37 39 41 43 45 47 49 51 53 54 55 55
7 8 9 12 13 14 13 12 11 13 12 13 15 18 20 26 30 31 31 33 36 38 39 39 37 36 36 36 37 37 37 37 38 40 42 44 46 49 51 53 55 56 57 57
10 10 11 13 12 12 12 10 12 15 15 14 12 13 22 29 32 34 35 37 39 41 42 42 42 41 41 41 41 41 41 41 42 43 44 46 48 50 52 54 55 55 56 57
10 11 10 14 14 13 14 14 16 18 19 19 15 15 23 29 32 38 41 42 43 43 43 43 44 44 44 44 44 44 44 44 44 45 46 47 48 50 51 52 53 54 55 55
10 11 9 11 14 14 16 17 20 22 23 23 22 18 20 28 33 38 40 41 41 41 42 44 44 44 45 44 45 45 45 45 45 45 46 46 47 47 47 48 48 49 50 50
12 12 11 11 12 15 16 18 20 21 21 22 24 21 20 27 31 36 40 40 40 40 42 43 43 43 43 43 43 43 43 43 43 43 43 43 42 42 42 42 42 41 40 39
10 11 10 8 11 14 17 19 21 23 24 24 25 23 21 29 34 38 40 40 39 39 41 42 41 41 41 40 40 40 39 39 39 39 39 38 37 36 35 34 32 29 28 28
8 8 9 9 11 15 18 20 22 25 27 27 27 28 27 31 34 36 37 38 39 40 40 41 40 39 39 38 38 37 36 35 35 35 34 32 32 31 29 28 25 22 21 20
7 8 9 10 12 15 17 18 21 24 25 28 28 29 31 34 36 37 37 38 40 40 41 41 41 40 38 37 36 35 34 33 32 31 30 29 28 26 24 22 19 18 15 13
9 10 11 12 15 17 18 20 22 22 24 27 30 31 35 37 38 38 38 39 40 41 41 41 41 40 39 37 36 34 32 31 30 29 27 26 25 22 20 17 14 12 10 8
15 15 15 15 17 19 21 22 25 24 25 29 33 36 39 39 38 38 38 40 41 41 40 40 40 40 39 38 36 34 32 30 29 28 25 23 22 19 17 15 12 10 8 6
18 20 22 22 23 24 21 28 31 30 31 34 37 39 40 40 40 39 41 43 43 43 42 41 41 40 40 39 37 34 31 29 28 27 24 21 19 17 16 14 11 10 8 7
22 24 26 27 28 28 26 34 35 34 37 40 41 43 44 44 43 42 44 44 44 44 44 43 42 41 40 38 37 34 31 29 28 26 23 20 18 17 15 13 12 11 10 9
30 29 30 30 31 32 35 39 40 40 44 45 46 48 49 49 50 48 47 46 46 46 45 44 43 41 39 38 36 35 32 29 28 26 23 19 17 16 15 13 12 11 11 11
33 35 35 36 37 37 43 44 44 45 48 48 49 50 51 51 51 52 51 50 49 48 46 45 44 42 39 37 36 34 32 29 27 25 22 19 17 15 15 13 12 11 11 10
35 36 37 38 40 42 45 47 47 49 51 52 53 55 56 56 55 55 55 53 51 50 48 46 44 42 39 37 36 34 32 29 27 25 23 20 18 16 14 12 11 11 10 9
38 39 40 42 43 45 47 49 51 53 55 57 59 60 62 63 63 62 60 58 54 51 48 46 44 41 40 37 35 34 32 30 28 27 24 21 19 17 15 13 12 11 10 9
38 39 41 44 46 48 50 52 54 57 60 63 65 66 67 68 68 67 65 61 57 53 50 47 45 42 41 39 36 35 32 31 30 29 27 24 21 18 17 15 13 12 10 9
40 40 42 45 47 50 53 56 59 61 64 66 67 69 70 71 71 70 68 64 61 58 54 50 49 46 43 42 39 35 33 31 32 32 30 27 24 21 19 17 15 13 11 10
42 44 46 49 53 56 58 61 63 66 67 69 71 73 73 74 74 73 71 68 65 62 58 53 50 47 44 43 40 36 34 33 33 34 33 30 27 24 22 20 17 15 14 13
Wind_Direction
228 233 208 228 239 243 243 230 224 233 247 258 268 278 274 255 265 272 277 280 280 279 279 282 280 279 279 279 279 279 278 278 278 279 279 279 279 279 280 280 281 283 285 285
220 258 241 243 250 254 252 249 250 258 266 272 280 285 284 279 276 278 281 284 284 283 284 283 283 285 281 281 281 280 278 278 277 277 277 277 277 277 279 280 280 281 282 282
223 251 255 262 261 262 266 271 263 256 261 277 288 291 296 297 291 288 291 291 289 287 287 287 286 285 283 283 282 282 281 280 279 279 278 278 278 278 279 280 280 280 281 281
240 254 266 270 273 270 265 262 267 276 284 287 289 288 288 283 281 284 286 288 289 294 295 292 288 285 284 282 282 281 281 281 281 280 280 280 280 280 280 279 280 281 282 283
258 270 279 277 273 273 275 275 282 290 294 297 301 294 295 281 271 275 277 282 290 297 297 294 290 287 285 283 281 280 279 279 280 280 280 280 280 281 280 280 280 280 281 281
260 278 287 281 276 285 290 290 294 306 313 302 284 270 274 267 268 276 283 288 292 295 297 296 293 289 286 284 283 282 281 280 280 280 281 281 282 282 282 282 281 281 281 280
280 289 295 303 302 293 298 305 309 304 302 301 297 304 307 293 291 294 292 291 294 297 299 298 296 292 289 286 284 283 283 282 282 282 282 283 283 283 283 283 283 282 281 280
281 284 280 294 304 301 302 304 306 296 286 280 293 308 298 288 293 294 294 293 295 296 296 295 294 291 289 287 285 283 283 283 283 283 283 283 284 284 284 284 284 283 282 281
263 271 285 295 304 306 310 305 298 301 306 306 307 299 293 290 293 295 297 299 301 299 297 296 294 291 288 286 284 283 282 281 282 283 284 285 285 286 286 286 285 284 283 282
277 277 279 292 307 318 313 312 312 311 308 303 300 291 287 292 297 297 299 302 304 304 303 301 298 296 291 286 283 281 280 280 281 282 284 286 287 287 288 287 286 286 284 281
289 288 283 278 294 306 300 299 299 298 298 299 299 295 285 286 289 291 296 300 303 306 307 305 303 300 297 292 286 282 279 279 280 282 285 287 289 290 290 290 288 287 285 282
295 297 297 292 292 284 285 297 303 305 307 304 305 312 301 294 295 297 300 305 309 310 309 308 307 305 302 297 291 286 282 280 281 283 286 289 292 293 294 294 292 290 287 281
298 300 299 288 293 291 289 302 311 311 311 311 310 312 305 296 295 296 301 305 309 309 308 309 309 309 306 302 296 290 286 283 284 286 289 292 295 297 297 297 296 296 292 282
296 296 293 289 277 277 287 295 296 294 297 300 301 301 299 294 293 296 301 305 307 308 308 309 311 312 309 305 301 295 290 287 288 290 292 294 298 300 300 301 300 303 301 288
296 295 292 290 285 283 286 288 287 289 293 293 296 296 296 294 298 302 305 307 307 308 309 310 311 312 311 307 303 298 293 291 292 293 293 295 299 300 302 306 308 313 312 306
306 302 297 296 293 293 294 292 290 292 293 292 294 294 294 298 302 304 306 306 304 307 309 309 310 311 312 309 305 300 295 292 293 293 293 295 298 300 302 309 315 322 326 324
306 307 304 302 298 299 302 297 296 300 297 295 295 297 299 301 301 302 301 299 301 305 306 307 309 310 310 310 307 301 294 290 292 291 291 292 294 295 297 302 308 313 317 311
311 310 309 310 306 308 307 297 297 301 300 296 297 299 299 299 300 300 298 299 302 304 305 306 308 309 309 308 306 303 294 286 288 289 288 288 288 288 290 294 296 300 301 295
318 315 313 312 310 310 301 294 298 303 301 300 302 300 299 300 300 299 298 299 301 302 303 303 303 304 305 305 304 301 296 284 282 284 283 282 281 279 281 283 285 284 285 284
316 314 313 312 310 311 301 301 307 309 304 305 304 302 301 301 300 300 298 298 298 298 298 298 298 299 300 301 300 300 294 283 277 278 277 275 274 273 273 274 277 278 278 278
312 312 313 312 310 306 302 307 308 305 302 301 299 298 297 297 296 296 296 296 295 294 294 294 294 294 295 295 295 296 292 281 273 271 269 266 265 267 267 267 269 271 272 272
307 306 307 306 304 302 304 304 303 301 299 298 297 296 296 296 295 294 293 293 292 291 290 289 289 288 288 288 288 288 288 277 268 263 262 260 258 259 260 258 260 261 259 259
304 307 308 306 303 301 301 300 299 299 299 298 298 297 296 295 294 293 292 291 290 288 286 284 283 282 281 280 281 282 282 273 262 256 253 253 253 255 254 253 253 250 249 250
306 309 306 304 302 302 301 301 301 301 301 300 299 297 296 294 293 291 290 288 286 283 281 279 276 277 277 275 272 272 273 268 257 249 246 247 247 249 251 250 248 245 243 242
311 306 303 301 301 302 303 303 303 302 301 300 298 296 294 292 291 288 286 283 281 279 277 276 273 271 270 268 263 264 266 265 252 244 241 242 243 244 246 245 244 243 241 242
309 308 306 305 305 305 306 305 304 303 301 299 297 296 294 293 292 290 288 284 281 278 276 273 269 267 264 262 260 257 258 259 249 240 238 238 239 240 241 242 241 241 241 242
Height
5875 5879 5881 5883 5883 5884 5886 5889 5891 5893 5892 5886 5885 5886 5888 5889 5885 5883 5881 5880 5879 5877 5875 5875 5873 5871 5872 5872 5872 5872 5871 5869 5867 5866 5865 5865 5864 5863 5862 5861 5860 5860 5859 5858
5876 5876 5877 5878 5880 5881 5882 5884 5886 5887 5885 5882 5880 5880 5880 5880 5878 5875 5874 5873 5871 5869 5867 5867 5865 5863 5863 5862 5862 5862 5861 5860 5858 5857 5856 5855 5854 5854 5853 5852 5851 5850 5849 5847
5874 5874 5874 5876 5877 5879 5880 5881 5881 5880 5877 5876 5876 5875 5875 5873 5871 5868 5866 5864 5863 5862 5860 5859 5858 5857 5854 5854 5853 5852 5851 5850 5848 5847 5846 5845 5844 5844 5843 5842 5840 5839 5838 5836
5871 5871 5872 5874 5874 5875 5875 5875 5873 5873 5873 5872 5872 5870 5871 5870 5866 5862 5858 5855 5853 5853 5852 5851 5849 5848 5846 5845 5844 5843 5841 5840 5838 5837 5835 5834 5833 5833 5833 5831 5829 5828 5826 5824
5869 5868 5869 5870 5870 5869 5869 5869 5868 5868 5867 5867 5867 5865 5867 5865 5859 5854 5850 5848 5847 5846 5845 5843 5841 5839 5837 5836 5835 5833 5832 5831 5828 5826 5825 5823 5822 5821 5820 5819 5817 5816 5815 5814
5866 5866 5866 5866 5865 5865 5864 5864 5864 5864 5863 5863 5862 5860 5860 5856 5853 5850 5849 5846 5844 5841 5839 5836 5833 5831 5829 5827 5825 5824 5822 5821 5819 5817 5814 5812 5811 5809 5808 5807 5805 5804 5803 5802
5863 5864 5863 5863 5863 5862 5862 5862 5862 5862 5863 5860 5857 5856 5856 5850 5850 5848 5845 5842 5838 5834 5831 5829 5826 5824 5822 5819 5817 5816 5814 5812 5810 5808 5806 5804 5801 5799 5797 5795 5793 5791 5790 5788
5862 5862 5862 5861 5861 5860 5859 5859 5860 5859 5859 5858 5857 5857 5855 5848 5846 5843 5840 5837 5833 5829 5825 5822 5819 5817 5814 5812 5810 5808 5806 5804 5802 5799 5797 5794 5791 5788 5786 5783 5780 5778 5775 5774
5860 5860 5860 5859 5858 5858 5856 5856 5856 5855 5854 5854 5856 5856 5849 5841 5839 5836 5833 5830 5826 5822 5818 5814 5811 5808 5806 5803 5801 5798 5796 5794 5792 5790 5787 5784 5781 5777 5774 5770 5767 5764 5761 5758
5858 5857 5858 5857 5855 5855 5854 5854 5853 5851 5850 5849 5850 5850 5844 5838 5833 5829 5826 5822 5818 5814 5810 5805 5801 5798 5795 5793 5790 5788 5786 5784 5782 5780 5777 5773 5770 5766 5762 5758 5753 5750 5746 5743
5855 5855 5855 5854 5854 5853 5853 5851 5849 5847 5846 5844 5842 5845 5841 5835 5830 5825 5821 5817 5812 5808 5802 5797 5792 5788 5784 5781 5779 5776 5774 5773 5771 5769 5766 5762 5759 5754 5750 5745 5740 5735 5731 5727
5853 5852 5851 5851 5851 5850 5849 5847 5845 5843 5841 5839 5836 5838 5834 5829 5824 5819 5814 5809 5805 5800 5795 5789 5784 5779 5775 5771 5767 5765 5763 5761 5760 5758 5755 5751 5747 5743 5738 5733 5728 5723 5717 5714
5851 5850 5849 5849 5849 5847 5844 5843 5841 5838 5836 5834 5831 5833 5829 5824 5818 5813 5807 5802 5798 5793 5787 5782 5776 5772 5766 5762 5758 5755 5753 5751 5749 5747 5744 5741 5737 5733 5728 5723 5717 5712 5707 5704
5849 5848 5847 5846 5844 5842 5841 5840 5838 5836 5832 5829 5828 5825 5822 5817 5811 5806 5801 5796 5791 5786 5780 5774 5769 5764 5759 5754 5750 5747 5744 5742 5740 5738 5735 5732 5729 5725 5720 5715 5710 5705 5701 5697
5847 5846 5844 5842 5840 5839 5837 5835 5833 5831 5828 5824 5821 5818 5814 5807 5802 5798 5793 5788 5783 5778 5772 5767 5761 5756 5752 5747 5743 5739 5736 5734 5732 5729 5727 5724 5721 5718 5714 5709 5705 5700 5696 5694
5845 5843 5841 5839 5836 5834 5832 5830 5828 5825 5821 5817 5813 5810 5804 5798 5794 5790 5786 5780 5775 5770 5765 5759 5754 5749 5744 5740 5735 5732 5729 5727 5725 5722 5720 5718 5715 5712 5709 5706 5702 5699 5696 5693
5841 5839 5837 5835 5832 5829 5827 5824 5821 5818 5814 5809 5805 5802 5795 5791 5787 5783 5778 5771 5766 5762 5757 5752 5746 5741 5737 5733 5729 5724 5722 5720 5718 5716 5714 5712 5710 5708 5705 5703 5700 5697 5695 5693
5837 5834 5832 5829 5827 5824 5823 5816 5813 5810 5806 5800 5796 5792 5786 5782 5777 5774 5767 5761 5757 5753 5748 5743 5738 5734 5729 5725 5721 5718 5715 5713 5712 5710 5708 5707 5705 5703 5701 5699 5698 5696 5694 5693
5832 5829 5826 5823 5820 5817 5814 5806 5804 5802 5796 5790 5787 5781 5776 5771 5767 5763 5756 5751 5747 5742 5738 5733 5729 5725 5721 5717 5714 5711 5708 5706 5705 5704 5703 5701 5700 5699 5697 5696 5695 5693 5692 5691
5825 5823 5820 5816 5812 5808 5803 5798 5794 5792 5785 5779 5774 5768 5763 5758 5754 5751 5745 5741 5736 5732 5727 5723 5719 5716 5713 5709 5706 5703 5701 5699 5699 5698 5697 5696 5695 5694 5693 5692 5691 5690 5690 5689
5820 5815 5811 5806 5803 5799 5792 5790 5787 5783 5776 5770 5763 5757 5751 5746 5741 5736 5732 5728 5723 5719 5715 5711 5708 5706 5704 5700 5697 5695 5693 5692 5691 5691 5691 5690 5690 5689 5688 5688 5687 5687 5686 5686
5814 5810 5806 5801 5796 5792 5786 5781 5776 5770 5762 5756 5750 5743 5737 5731 5725 5720 5716 5712 5708 5705 5701 5698 5696 5694 5692 5690 5687 5686 5684 5684 5684 5684 5684 5684 5684 5684 5684 5683 5683 5683 5683 5683
5806 5802 5797 5792 5787 5780 5775 5768 5762 5755 5748 5741 5734 5727 5720 5714 5708 5702 5697 5693 5690 5687 5685 5683 5681 5680 5679 5677 5675 5675 5675 5674 5675 5677 5677 5678 5678 5678 5678 5679 5679 5679 5679 5680
5799 5795 5788 5781 5774 5768 5762 5755 5748 5741 5733 5725 5717 5708 5701 5694 5687 5682 5677 5673 5670 5669 5667 5666 5665 5666 5666 5665 5663 5662 5663 5664 5666 5668 5670 5671 5672 5672 5673 5674 5674 5675 5676 5676
5790 5784 5778 5771 5764 5756 5749 5742 5734 5725 5716 5707 5698 5689 5679 5671 5665 5659 5655 5652 5649 5648 5647 5647 5648 5649 5651 5650 5650 5650 5651 5653 5655 5658 5661 5663 5664 5666 5667 5668 5669 5671 5672 5673
5778 5772 5765 5758 5751 5743 5735 5726 5717 5707 5698 5688 5678 5668 5658 5648 5640 5634 5630 5627 5625 5625 5625 5626 5627 5630 5632 5634 5635 5635 5637 5640 5643 5647 5651 5654 5657 5659 5661 5662 5664 5666 5667 5669